• Em Portugal
  • Lista de países
  • Para 7 dias
  • Temperatura da água
  • Mapas de satélite
  • Mapa do tempo
  • Widgets de tempo
  • user-avatar
    Iniciar Sessão

    Previsão horária em Kaunas

    Hoje, 22 Outubro, Segunda-feira

    Tempo Temperatura Precipitação Vento Pressão Humidade
    00:00 +6°C° 0 mm 2 m/s 764 mmHg 87%
    01:00 +5°C° 0 mm 3 m/s 763 mmHg 88%
    02:00 +5°C° 0 mm 3 m/s 763 mmHg 89%
    03:00 +5°C° 0 mm 3 m/s 763 mmHg 89%
    04:00 +4°C° 0 mm 3 m/s 762 mmHg 89%
    05:00 +4°C° 0 mm 3 m/s 762 mmHg 89%
    06:00 +4°C° 0 mm 4 m/s 761 mmHg 88%
    07:00 +5°C° 0 mm 4 m/s 761 mmHg 88%
    08:00 +5°C° 0 mm 4 m/s 761 mmHg 87%
    09:00 +6°C° 0 mm 5 m/s 760 mmHg 82%
    10:00 +7°C° 0 mm 5 m/s 760 mmHg 78%
    11:00 +8°C° 0 mm 5 m/s 759 mmHg 73%
    12:00 +9°C° 0.1 mm 5 m/s 759 mmHg 72%
    13:00 +9°C° 0.1 mm 5 m/s 758 mmHg 72%
    14:00 +9°C° 0.1 mm 5 m/s 758 mmHg 72%
    15:00 +9°C° 0.3 mm 5 m/s 757 mmHg 76%
    16:00 +9°C° 0.3 mm 5 m/s 757 mmHg 80%
    17:00 +8°C° 0.3 mm 5 m/s 757 mmHg 84%
    18:00 +8°C° 0.3 mm 5 m/s 757 mmHg 84%
    19:00 +8°C° 0.3 mm 5 m/s 757 mmHg 84%
    20:00 +7°C° 0.3 mm 4 m/s 757 mmHg 84%
    21:00 +6°C° 0 mm 4 m/s 757 mmHg 85%
    22:00 +5°C° 0 mm 3 m/s 757 mmHg 85%
    23:00 +4°C° 0 mm 3 m/s 757 mmHg 86%

    Amanhã, 23 Outubro, Terça-feira

    Tempo Temperatura Precipitação Vento Pressão Humidade
    00:00 +4°C° 0 mm 3 m/s 757 mmHg 85%
    01:00 +4°C° 0 mm 3 m/s 757 mmHg 85%
    02:00 +3°C° 0 mm 3 m/s 757 mmHg 84%
    03:00 +3°C° 0 mm 3 m/s 756 mmHg 84%
    04:00 +3°C° 0 mm 3 m/s 756 mmHg 84%
    05:00 +3°C° 0 mm 3 m/s 755 mmHg 83%
    06:00 +3°C° 0 mm 3 m/s 755 mmHg 84%
    07:00 +4°C° 0 mm 3 m/s 754 mmHg 84%
    08:00 +4°C° 0 mm 4 m/s 753 mmHg 85%
    09:00 +5°C° 0 mm 5 m/s 752 mmHg 82%
    10:00 +6°C° 0 mm 5 m/s 751 mmHg 79%
    11:00 +5°C° 0 mm 6 m/s 750 mmHg 76%
    12:00 +7°C° 0.1 mm 6 m/s 748 mmHg 74%
    13:00 +6°C° 0.1 mm 7 m/s 747 mmHg 73%
    14:00 +6°C° 0.1 mm 7 m/s 745 mmHg 71%
    15:00 +5°C° 1.2 mm 8 m/s 743 mmHg 74%
    16:00 +5°C° 1.2 mm 8 m/s 741 mmHg 77%
    17:00 +3°C° 1.2 mm 9 m/s 739 mmHg 81%
    18:00 +5°C° 1.4 mm 8 m/s 738 mmHg 83%
    19:00 +5°C° 1.4 mm 7 m/s 737 mmHg 86%
    20:00 +5°C° 1.4 mm 6 m/s 735 mmHg 89%
    21:00 +5°C° 0.5 mm 6 m/s 735 mmHg 89%
    22:00 +7°C° 0.5 mm 5 m/s 734 mmHg 89%
    23:00 +7°C° 0.5 mm 4 m/s 733 mmHg 90%

    Depois de amanhã, 24 Outubro, Quarta-feira

    Tempo Temperatura Precipitação Vento Pressão Humidade
    00:00 +7°C° 0.2 mm 4 m/s 733 mmHg 88%
    01:00 +6°C° 0.2 mm 4 m/s 732 mmHg 86%
    02:00 +6°C° 0.2 mm 4 m/s 732 mmHg 84%
    03:00 +6°C° 0.2 mm 4 m/s 732 mmHg 84%
    04:00 +5°C° 0.2 mm 5 m/s 732 mmHg 84%
    05:00 +5°C° 0.2 mm 5 m/s 731 mmHg 84%
    06:00 +5°C° 0.3 mm 5 m/s 731 mmHg 83%
    07:00 +4°C° 0.3 mm 6 m/s 732 mmHg 82%
    08:00 +4°C° 0.3 mm 7 m/s 732 mmHg 80%
    09:00 +4°C° 0.6 mm 7 m/s 732 mmHg 80%
    10:00 +5°C° 0.6 mm 8 m/s 732 mmHg 79%
    11:00 +5°C° 0.6 mm 9 m/s 733 mmHg 78%
    12:00 +5°C° 0.7 mm 9 m/s 733 mmHg 78%
    13:00 +5°C° 0.7 mm 9 m/s 733 mmHg 78%
    14:00 +6°C° 0.7 mm 9 m/s 734 mmHg 78%
    15:00 +6°C° 0.5 mm 9 m/s 735 mmHg 79%
    16:00 +5°C° 0.5 mm 9 m/s 736 mmHg 80%
    17:00 +5°C° 0.5 mm 9 m/s 737 mmHg 80%
    18:00 +5°C° 0.4 mm 9 m/s 738 mmHg 80%
    19:00 +5°C° 0.4 mm 9 m/s 739 mmHg 80%
    20:00 +5°C° 0.4 mm 9 m/s 741 mmHg 80%
    21:00 +4°C° 0.3 mm 8 m/s 742 mmHg 79%
    22:00 +4°C° 0.3 mm 8 m/s 743 mmHg 79%
    23:00 +4°C° 0.3 mm 8 m/s 744 mmHg 78%

    25 Outubro, Quinta-feira

    Tempo Temperatura Precipitação Vento Pressão Humidade
    00:00 +4°C° 0 mm 7 m/s 744 mmHg 78%
    01:00 +3°C° 0 mm 7 m/s 745 mmHg 78%
    02:00 +3°C° 0 mm 7 m/s 746 mmHg 77%
    03:00 +3°C° 0 mm 6 m/s 746 mmHg 79%
    04:00 +3°C° 0 mm 6 m/s 747 mmHg 81%
    05:00 +2°C° 0 mm 5 m/s 747 mmHg 83%
    06:00 +2°C° 0 mm 5 m/s 747 mmHg 83%
    07:00 +2°C° 0 mm 5 m/s 747 mmHg 83%
    08:00 +2°C° 0 mm 5 m/s 748 mmHg 84%
    09:00 +3°C° 0 mm 5 m/s 748 mmHg 78%
    10:00 +4°C° 0 mm 6 m/s 748 mmHg 71%
    11:00 +5°C° 0 mm 6 m/s 748 mmHg 65%
    12:00 +7°C° 0 mm 5 m/s 747 mmHg 63%
    13:00 +7°C° 0 mm 5 m/s 747 mmHg 61%
    14:00 +7°C° 0 mm 5 m/s 746 mmHg 58%
    15:00 +7°C° 0 mm 4 m/s 746 mmHg 64%
    16:00 +7°C° 0 mm 3 m/s 746 mmHg 69%
    17:00 +7°C° 0 mm 2 m/s 745 mmHg 74%
    18:00 +6°C° 0.1 mm 2 m/s 745 mmHg 79%
    19:00 +6°C° 0.1 mm 2 m/s 745 mmHg 84%
    20:00 +6°C° 0.1 mm 2 m/s 744 mmHg 88%
    21:00 +6°C° 0 mm 2 m/s 744 mmHg 91%
    22:00 +6°C° 0 mm 2 m/s 744 mmHg 93%
    23:00 +6°C° 0 mm 2 m/s 744 mmHg 95%

    26 Outubro, Sexta-feira

    Tempo Temperatura Precipitação Vento Pressão Humidade
    00:00 +6°C° 0 mm 2 m/s 744 mmHg 95%
    01:00 +6°C° 0 mm 2 m/s 744 mmHg 96%
    02:00 +6°C° 0 mm 2 m/s 744 mmHg 96%
    03:00 +6°C° 0.1 mm 2 m/s 745 mmHg 95%
    04:00 +6°C° 0.1 mm 2 m/s 745 mmHg 95%
    05:00 +5°C° 0.1 mm 3 m/s 745 mmHg 94%
    06:00 +5°C° 0 mm 3 m/s 745 mmHg 94%
    07:00 +5°C° 0 mm 2 m/s 746 mmHg 94%
    08:00 +5°C° 0 mm 2 m/s 746 mmHg 94%
    09:00 +6°C° 0 mm 2 m/s 746 mmHg 86%
    10:00 +8°C° 0 mm 2 m/s 747 mmHg 79%
    11:00 +9°C° 0 mm 2 m/s 747 mmHg 71%
    12:00 +10°C° 0 mm 3 m/s 747 mmHg 69%
    13:00 +10°C° 0 mm 3 m/s 747 mmHg 66%
    14:00 +11°C° 0 mm 3 m/s 747 mmHg 64%
    15:00 +10°C° 0.1 mm 3 m/s 747 mmHg 71%
    16:00 +10°C° 0.1 mm 3 m/s 747 mmHg 78%
    17:00 +9°C° 0.1 mm 3 m/s 746 mmHg 85%
    18:00 +8°C° 0.4 mm 4 m/s 746 mmHg 85%
    19:00 +8°C° 0.4 mm 4 m/s 746 mmHg 86%
    20:00 +8°C° 0.4 mm 5 m/s 746 mmHg 86%
    21:00 +8°C° 0.1 mm 5 m/s 746 mmHg 85%
    22:00 +8°C° 0.1 mm 5 m/s 745 mmHg 83%
    23:00 +8°C° 0.1 mm 5 m/s 745 mmHg 82%

    27 Outubro, Sábado

    Tempo Temperatura Precipitação Vento Pressão Humidade
    00:00 +8°C° 0 mm 5 m/s 745 mmHg 83%
    01:00 +8°C° 0 mm 5 m/s 745 mmHg 84%
    02:00 +8°C° 0 mm 5 m/s 744 mmHg 85%
    03:00 +8°C° 0 mm 5 m/s 744 mmHg 85%
    04:00 +8°C° 0 mm 5 m/s 744 mmHg 85%
    05:00 +8°C° 0 mm 5 m/s 744 mmHg 86%
    06:00 +8°C° 0 mm 5 m/s 744 mmHg 86%
    07:00 +8°C° 0 mm 5 m/s 744 mmHg 87%
    08:00 +7°C° 0 mm 5 m/s 744 mmHg 88%
    09:00 +8°C° 0 mm 5 m/s 744 mmHg 83%
    10:00 +8°C° 0 mm 5 m/s 745 mmHg 78%
    11:00 +9°C° 0 mm 5 m/s 745 mmHg 73%
    12:00 +9°C° 0 mm 5 m/s 745 mmHg 70%
    13:00 +9°C° 0 mm 5 m/s 745 mmHg 66%
    14:00 +10°C° 0 mm 5 m/s 745 mmHg 62%
    15:00 +10°C° 0.1 mm 4 m/s 745 mmHg 67%
    16:00 +9°C° 0.1 mm 3 m/s 745 mmHg 72%
    17:00 +9°C° 0.1 mm 3 m/s 745 mmHg 76%
    18:00 +8°C° 0.3 mm 3 m/s 745 mmHg 80%
    19:00 +8°C° 0.3 mm 2 m/s 745 mmHg 83%
    20:00 +8°C° 0.3 mm 2 m/s 745 mmHg 87%
    21:00 +8°C° 0.1 mm 2 m/s 744 mmHg 87%
    22:00 +9°C° 0.1 mm 1 m/s 744 mmHg 88%
    23:00 +8°C° 0.1 mm 1 m/s 744 mmHg 88%

    28 Outubro, Domingo

    Tempo Temperatura Precipitação Vento Pressão Humidade
    00:00 +8°C° 0.2 mm 1 m/s 744 mmHg 87%
    01:00 +8°C° 0.2 mm 1 m/s 744 mmHg 86%
    02:00 +7°C° 0.2 mm 2 m/s 744 mmHg 85%
    03:00 +7°C° 0.2 mm 2 m/s 744 mmHg 85%
    04:00 +8°C° 0.2 mm 1 m/s 744 mmHg 85%
    05:00 +7°C° 0.2 mm 1 m/s 744 mmHg 85%
    06:00 +7°C° 0.2 mm 1 m/s 744 mmHg 86%
    07:00 +7°C° 0.2 mm 1 m/s 745 mmHg 87%
    08:00 +7°C° 0.2 mm 1 m/s 745 mmHg 88%
    09:00 +7°C° 0 mm 2 m/s 746 mmHg 85%
    10:00 +7°C° 0 mm 2 m/s 746 mmHg 83%
    11:00 +8°C° 0 mm 2 m/s 747 mmHg 81%
    12:00 +9°C° 0 mm 2 m/s 747 mmHg 78%
    13:00 +9°C° 0 mm 2 m/s 748 mmHg 76%
    14:00 +9°C° 0 mm 2 m/s 748 mmHg 73%
    15:00 +9°C° 0 mm 2 m/s 749 mmHg 76%
    16:00 +8°C° 0 mm 2 m/s 749 mmHg 79%
    17:00 +8°C° 0 mm 1 m/s 750 mmHg 81%
    18:00 +7°C° 0 mm 1 m/s 750 mmHg 83%
    19:00 +7°C° 0 mm 1 m/s 751 mmHg 84%
    20:00 +6°C° 0 mm 1 m/s 751 mmHg 86%
    21:00 +6°C° 0 mm 1 m/s 752 mmHg 87%
    22:00 +5°C° 0 mm 1 m/s 752 mmHg 88%
    23:00 +5°C° 0 mm 1 m/s 753 mmHg 89%
    Mostrar mais